Flag for Canada Weather past 2 weeks in Montreal, Quebec, Canada

Now
72 °F

Partly sunny.


Feels Like: 76 °F
Forecast: N/A
Wind: 5 mph from Southeast

Location: Montreal - Pierre Elliot Trudeau International Aiport

Current Time: Jul 30, 2014 at 7:56:11 PM

Latest Report: Jul 30, 2014 at 7:00 PM


Visibility: 30 mi

Pressure: 29.94 "Hg

Humidity: 57%

Dew point: 55 °F

Location of MontrealLocation

Historic Weather in Montreal — Graph

°F

Montreal temperature yesterday

Maximum temperature yesterday: 70 °F (at 4:00 PM)
Minimum temperature yesterday: 54 °F (at 5:00 AM)
Average temperature yesterday: 63 °F

Past Weeks' High & Low Weather Summary

 TemperatureHumidityPressure
High84 °F (Jul 21, 3:00 PM)94% (Jul 16, 12:00 AM)30.27 "Hg (Jul 16, 12:00 AM)
Low54 °F (Jul 29, 5:00 AM)39% (Jul 19, 5:00 PM)29.58 "Hg (Jul 27, 5:00 PM)
Average69 °F68%29.91 "Hg
* Reported Jul 15 6:00 PM — Jul 30 6:00 PM, Montreal, Weather by CustomWeather, © 2014

Note: Actual official high and low records may vary slightly from our data, if they occured in-between our weather recording intervals... More about our weather records

Advertising

Montreal weather history for previous 24 hours

 ConditionsComfort  
Time TempWeatherWind HumidityBarometerVisibility
6:00 PM
Jul 30
73 °FBroken clouds.5 mph53%29.93 "Hg30 mi
5:00 PM75 °FBroken clouds.5 mph44%29.93 "Hg30 mi
4:00 PM73 °FBroken clouds.3 mph50%29.93 "Hg30 mi
3:00 PM73 °FBroken clouds.7 mph47%29.94 "Hg30 mi
2:00 PM73 °FBroken clouds.9 mph50%29.96 "Hg30 mi
1:00 PM72 °FScattered clouds.3 mph53%29.97 "Hg30 mi
12:00 PM72 °FScattered clouds.9 mph53%29.98 "Hg30 mi
11:00 AM68 °FPassing clouds.7 mph60%30.00 "Hg30 mi
10:00 AM68 °FPassing clouds.6 mph56%30.00 "Hg30 mi
9:00 AM64 °FScattered clouds.6 mph60%30.00 "Hg30 mi
8:00 AM63 °FScattered clouds.5 mph68%29.99 "Hg30 mi
7:00 AM59 °FPartly sunny.7 mph77%29.99 "Hg30 mi
6:00 AM59 °FPassing clouds.8 mph77%29.98 "Hg30 mi
5:00 AM59 °FPassing clouds.5 mph82%29.96 "Hg15 mi
4:00 AM59 °FPassing clouds.3 mph82%29.96 "Hg15 mi
3:00 AM59 °FPassing clouds.5 mph82%29.95 "Hg15 mi
2:00 AM59 °FClear.6 mph88%29.94 "Hg15 mi
1:00 AM61 °FPassing clouds.8 mph83%29.94 "Hg15 mi
12:00 AM63 °FPassing clouds.8 mph83%29.94 "Hg15 mi
11:00 PM
Jul 29
64 °FPassing clouds.9 mph73%29.93 "Hg15 mi
10:00 PM64 °FPassing clouds.8 mph68%29.93 "Hg15 mi
9:00 PM66 °FPassing clouds.7 mph64%29.92 "Hg15 mi
8:00 PM68 °FScattered clouds.6 mph56%29.90 "Hg30 mi
7:00 PM70 °FPassing clouds.7 mph50%29.89 "Hg30 mi
Weather by CustomWeather, © 2014

See weather overviewHow to use our weather pages